Location: Dana
(41.8364°N, 106.7042°W)
Time: 02:48:52
(UTC+00:00)

Transit 4A - Pass Details

Date: 19 May 2026
Orbit: 860 x 980 km, 66.8° (Epoch: 6 June)

Event Time Altitude Azimuth Distance (km) Brightness Sun altitude
Rises 01:03:37 0° 311° (NW) 3,688 12.3 13.0°
Reaches altitude 10° 01:07:43 10° 286° (WNW) 2,728 14.4 12.2°
Maximum altitude 01:10:31 13° 260° (W) 2,483 11.5 11.7°
Drops below altitude 10° 01:13:18 10° 233° (SW) 2,702 10.9 11.2°
Sets 01:17:21 0° 208° (SSW) 3,622 11.1 10.5°
